Weather History for Marshalltown, IA

Change the Weather History Date:

Tuesday, June 26, 2012

  Actual Average Record
Temperature  
Mean Temperature 69 °F 72 °F  
Max Temperature 85 °F 82 °F 91 °F (1998)
Min Temperature 52 °F 61 °F 48 °F (2004)
Degree Days  
Heating Degree Days 0 0  
Month to date heating degree days 11 28  
Since 1 June heating degree days 11 28  
Since 1 July heating degree days 5518 7012  
Cooling Degree Days 4 7  
Month to date cooling degree days 176 134  
Year to date cooling degree days 312 184  
Since 1 June cooling degree days 176 134  
Growing Degree Days 18 (Base 50)    
Moisture  
Dew Point 52 °F    
Average Humidity 61    
Maximum Humidity 89    
Minimum Humidity 32    
Precipitation  
Precipitation 0.00 in 0.17 in 1.28 in (2008)
Month to date precipitation 0.77 4.49  
Year to date precipitation 7.96  
Sea Level Pressure  
Sea Level Pressure 29.94 in    
Wind  
Wind Speed 12 mph (SE)    
Max Wind Speed 22 mph    
Max Gust Speed 26 mph    
Visibility 10 miles    
Events      
T = Trace of Precipitation, MM = Missing Value Source: NWS Daily Summary

Daily Weather History Graph

Daily Weather History Graph

Search for Another Location

Airport:

Trip Planner

Search our weather history database for the weather conditions in past years. The results will help you decide how hot, cold, wet, or windy it might be!

Date:

Astronomy

Jun. 26, 2012 Rise Set
Actual Time 5:37 AM CDT 8:51 PM CDT
Civil Twilight 5:02 AM CDT 9:26 PM CDT
Nautical Twilight 4:18 AM CDT 10:10 PM CDT
Astronomical Twilight 3:24 AM CDT 11:04 PM CDT
Moon 1:02 PM CDT (6/26) 12:12 AM CDT (6/26)
Length of Visible Light 16h 23m
Length of Day
15h 14m
Waxing Crescent, 45% of the Moon is Illuminated
Jun 26
Waxing Crescent
Jun 26
First Quarter
Jul 3
Full
Jul 10
Last Quarter
Jul 18
New

Hourly Weather History & Observations

Time (CDT) Temp. Heat Index Dew Point Humidity Pressure Visibility Wind Dir Wind Speed Gust Speed Precip Events Conditions
12:53 AM 57.9 °F - 50.0 °F 75% 30.01 in 10.0 mi East 4.6 mph - N/A   Clear
1:53 AM 54.0 °F - 48.9 °F 83% 30.02 in 10.0 mi Calm Calm - N/A   Clear
2:53 AM 55.0 °F - 48.9 °F 80% 30.02 in 10.0 mi SE 6.9 mph - N/A   Clear
3:53 AM 52.0 °F - 48.9 °F 89% 30.02 in 10.0 mi ESE 6.9 mph - N/A   Clear
4:53 AM 53.1 °F - 48.0 °F 83% 30.01 in 10.0 mi ESE 8.1 mph - N/A   Clear
5:53 AM 54.0 °F - 46.0 °F 75% 30.02 in 10.0 mi SE 5.8 mph - N/A   Clear
6:53 AM 57.0 °F - 46.9 °F 69% 30.04 in 10.0 mi ESE 4.6 mph - N/A   Clear
7:53 AM 61.0 °F - 46.9 °F 60% 30.02 in 10.0 mi SE 11.5 mph - N/A   Clear
8:53 AM 64.9 °F - 48.0 °F 54% 30.02 in 10.0 mi SSE 11.5 mph - N/A   Clear
9:53 AM 69.1 °F - 50.0 °F 51% 30.01 in 10.0 mi SSE 13.8 mph - N/A   Clear
10:53 AM 73.0 °F - 50.0 °F 44% 30.00 in 10.0 mi SSE 12.7 mph - N/A   Clear
11:53 AM 75.9 °F - 53.1 °F 45% 29.98 in 10.0 mi SSE 10.4 mph 19.6 mph N/A   Clear
12:53 PM 79.0 °F - 54.0 °F 42% 29.96 in 10.0 mi SSE 13.8 mph - N/A   Clear
1:53 PM 80.1 °F 79.9 °F 53.1 °F 39% 29.92 in 10.0 mi SE 17.3 mph - N/A   Clear
2:53 PM 82.0 °F 81.2 °F 53.1 °F 37% 29.90 in 10.0 mi SE 20.7 mph 24.2 mph N/A   Clear
3:53 PM 84.0 °F 82.5 °F 53.1 °F 34% 29.88 in 10.0 mi SE 18.4 mph 25.3 mph N/A   Clear
4:53 PM 84.0 °F - 51.1 °F 32% 29.86 in 10.0 mi SSE 19.6 mph 24.2 mph N/A   Clear
5:53 PM 84.0 °F - 52.0 °F 33% 29.84 in 10.0 mi SSE 16.1 mph 26.5 mph N/A   Clear
6:53 PM 82.0 °F 81.2 °F 53.1 °F 37% 29.82 in 10.0 mi SSE 16.1 mph - N/A   Clear
7:53 PM 80.1 °F 80.0 °F 54.0 °F 40% 29.82 in 10.0 mi SSE 11.5 mph - N/A   Clear
8:53 PM 75.9 °F - 57.9 °F 54% 29.82 in 10.0 mi SE 9.2 mph - N/A   Clear
9:53 PM 73.9 °F - 57.0 °F 55% 29.82 in 10.0 mi SE 15.0 mph - N/A   Clear
10:53 PM 73.0 °F - 57.0 °F 57% 29.82 in 10.0 mi SE 12.7 mph - N/A   Clear
11:53 PM 71.1 °F - 57.0 °F 61% 29.81 in 10.0 mi SSE 16.1 mph 23.0 mph N/A   Clear